Location: Bridgewater Hill Observatory
(43.5992°N, 72.6989°W)
Time: 16:20:38
(UTC-04:00)

Daily predictions for brighter satellites

Satellite Brightness Start Highest point End
(mag) Time Altitude Azimuth Time Altitude Azimuth Time Altitude Azimuth
Cosmos 2221 4.2 21:06:47 10° NNW 21:10:40 34° W 21:14:32 10° SSW
ATLAS 5 CENTAUR R/B 2.9 21:10:17 10° SW 21:15:04 52° NW 21:20:16 10° NNE
Cosmos 1378 4.2 21:14:53 10° SSW 21:18:31 48° W 21:22:10 10° N
Cosmos 968 Rocket 3.5 21:14:41 10° SSW 21:19:50 73° ESE 21:25:04 10° NNE
Cosmos 2219 Rocket 4.3 21:22:22 10° NNE 21:25:13 14° NE 21:28:06 10° ENE
AVUM R/B 4.2 21:27:00 12° SE 21:28:07 16° ESE 21:29:44 10° ENE
DELTA 2 R/B (1) 3.7 21:23:15 10° W 21:28:40 58° S 21:34:06 10° ESE
USA 245 3.7 21:27:20 11° SE 21:29:28 24° ENE 21:31:33 10° NNE
ATLAS CENTAUR R/B 2.6 21:26:29 10° NW 21:30:44 38° WSW 21:34:38 10° S
Terra 3.6 21:29:52 10° ESE 21:33:00 18° ENE 21:36:09 10° NNE
Cosmos 1553 Rocket 4.3 21:26:41 10° N 21:33:05 75° W 21:39:24 10° S
CZ-4 SHROUD 3.1 21:30:45 10° SSE 21:33:53 83° E 21:37:03 10° N
Envisat 3.2 21:28:58 10° S 21:34:02 76° WSW 21:39:09 10° NNW
Cosmos 1515 Rocket 3.6 21:29:38 10° N 21:34:07 85° W 21:38:32 10° S
Cosmos 2266 Rocket 4.1 21:28:23 10° S 21:34:36 61° E 21:40:43 10° NNE
YAOGAN 6 2.9 21:34:09 11° SSE 21:37:33 53° ENE 21:41:07 10° N
ARGOS 3.7 21:33:04 11° SE 21:38:04 46° ENE 21:43:12 10° N
MetOp-A 4.2 21:34:52 10° SSE 21:40:13 80° ENE 21:45:36 10° NNW
Cosmos 2219 4.2 21:35:40 10° SSE 21:40:24 27° ESE 21:45:10 10° NE
BREEZE-M DEB (TANK) 3.9 21:40:53 10° NW 21:42:38 21° N 21:44:24 10° ENE
Cosmos 405 3.0 21:42:58 10° N 21:46:38 74° E 21:49:43 14° SSE
ERS-1 Rocket 4.5 21:42:11 10° SSW 21:46:44 34° W 21:51:18 10° NNW
Cosmos 2322 3.9 21:41:10 10° NNW 21:46:52 62° ENE 21:51:39 15° SE
Cosmos 1441 Rocket 3.7 21:45:11 10° SSW 21:48:56 61° WNW 21:52:41 10° N
Meteor 2-20 Rocket 4.5 21:43:32 10° S 21:49:40 73° E 21:55:48 10° NNE
Cosmos 1777 Rocket 4.0 21:44:55 10° SSW 21:50:12 82° ESE 21:55:29 10° NNE
Cosmos 2237 Rocket 4.4 21:47:25 10° N 21:50:39 15° NE 21:53:53 10° ENE
Sich 1 4.4 21:51:05 15° SE 21:53:26 23° E 21:56:54 10° NE
Cosmos 2322 Rocket 3.2 21:49:25 10° NW 21:54:41 42° WSW 21:59:55 10° S
Cosmos 1939 Rocket 4.5 21:51:16 10° SSW 21:54:48 31° W 21:58:20 10° NNW
H-2A R/B 3.1 21:51:09 14° SE 21:55:07 34° ENE 21:59:57 10° N
SPOT 5 3.5 21:57:48 10° S 22:02:08 48° W 22:06:44 10° NNW
SL-16 R/B 3.3 21:57:59 10° NW 22:03:12 39° WSW 22:08:24 10° S
Cosmos 1805 Rocket 4.0 22:00:34 16° SSE 22:03:50 45° E 22:08:05 10° NNE
Cosmos 1908 3.8 22:01:18 10° NNW 22:05:07 54° W 22:08:45 11° S
Cosmos 1437 2.7 22:02:32 15° S 22:05:12 71° E 22:08:29 10° NNE
Cosmos 1726 3.2 22:02:14 10° NNE 22:05:39 31° ENE 22:07:30 20° SE
Cosmos 2151 2.9 22:01:54 10° S 22:06:06 82° E 22:10:19 10° N
Cosmos 2360 Rocket 2.2 22:00:47 10° NNW 22:06:28 89° ENE 22:10:48 18° SSE
SPOT 1/Viking Rocket 3.6 22:02:25 14° SSE 22:06:55 85° WSW 22:12:06 10° NNW
NOSS 3-1 (C) 4.1 22:03:18 11° S 22:08:12 33° ESE 22:13:47 10° NE
Cosmos 1151 Rocket 3.4 22:04:16 10° NNW 22:08:30 61° W 22:12:25 12° S
NOAA 11 4.2 22:04:08 16° SSE 22:08:35 79° ENE 22:14:03 10° NNW
Nadezhda 2 Rocket 4.4 22:03:18 10° S 22:09:26 75° E 22:15:33 10° N
Cosmos 1680 Rocket 3.5 22:10:49 10° NNW 22:16:05 84° WSW 22:19:50 20° SSE
Cosmos 923 Rocket 4.3 22:13:45 10° NNW 22:18:53 61° WSW 22:22:50 17° S
Cosmos 1707 Rocket 3.6 22:16:23 10° N 22:20:43 67° E 22:23:15 24° SSE
SWAS 4.4 22:21:07 10° NNW 22:25:28 83° ENE 22:27:48 27° SSE
Cosmos 1666 Rocket 3.7 22:23:05 23° SSE 22:25:39 57° E 22:30:00 10° NNE
Meteor 2-11 Rocket 4.4 22:21:00 10° N 22:27:11 76° E 22:31:26 21° SSE
Cosmos 1674 4.4 22:27:47 10° SW 22:31:15 32° WNW 22:34:46 10° N
Cosmos 2227 Rocket 3.6 22:31:11 18° ESE 22:32:11 19° E 22:36:00 10° ENE
Cosmos 1898 Rocket 3.9 22:29:54 24° SSE 22:32:31 42° ESE 22:37:24 10° NE
Cosmos 2333 Rocket 3.5 22:28:22 10° N 22:33:28 31° NE 22:37:13 16° ESE
CZ-4B R/B 4.2 22:28:22 10° N 22:33:33 57° WNW 22:38:39 10° SSW
CZ-4C R/B 3.0 22:34:28 30° S 22:36:03 75° WSW 22:39:33 10° NNW
Cosmos 1300 2.7 22:33:33 10° N 22:37:25 77° W 22:39:16 29° S
Cosmos 1470 Rocket 4.5 22:37:46 27° ESE 22:38:56 31° E 22:42:47 10° NNE
SL-08 RB Rocket 4.1 22:36:32 20° S 22:39:27 56° W 22:43:53 10° NNW
SL-16 R/B 4.3 22:37:30 10° N 22:41:05 17° NE 22:44:39 10° E
Cosmos 2058 3.2 22:39:47 17° SSW 22:42:52 62° W 22:46:57 10° N
Cosmos 1626 3.5 22:44:32 23° E 22:44:49 23° E 22:47:51 10° NE
COSMOS 2428 2.7 22:39:34 10° NNW 22:45:18 89° ENE 22:48:24 28° SSE
Meteor 1-4 Rocket 2.7 22:43:38 10° N 22:47:25 67° ENE 22:48:33 41° SSE
USA 229 DEB 4.5 22:43:30 10° SW 22:50:16 55° NW 22:57:10 10° NNE
USA 229 4.5 22:43:35 10° SW 22:50:22 55° NW 22:57:15 10° NNE
Cosmos 2242 Rocket 3.5 22:47:37 10° N 22:52:05 86° E 22:54:01 34° S
Landsat 7 4.2 22:51:46 25° S 22:54:26 57° W 22:59:09 10° NNW
SL-23 DEB 4.0 22:50:17 10° WNW 22:54:31 45° SW 22:55:09 40° S
USA 32 4.0 22:50:20 10° N 22:55:38 88° W 22:58:24 29° S
NOSS 0 Rocket 4.3 22:52:04 10° NNW 22:58:07 56° ENE 23:01:28 26° SE
Spot 4 3.8 22:57:34 33° SSE 22:59:45 89° ENE 23:04:38 10° NNW
Cosmos 2297 Rocket 3.5 22:59:14 22° ESE 22:59:55 22° E 23:04:09 10° NE
Cosmos 1455 2.7 22:56:57 10° N 23:00:35 42° ENE 23:01:18 38° ESE
IGS 5A 3.5 23:00:13 36° S 23:01:49 72° W 23:06:00 10° NNW
SeaSat 1 3.1 23:01:34 26° ESE 23:03:58 47° ENE 23:08:42 10° NNW
NOSS 3-1 (A) 3.4 23:05:11 18° SSW 23:09:38 69° ESE 23:16:09 10° NE
Cosmos 2219 Rocket 2.2 23:04:37 10° NNW 23:10:14 73° ENE 23:12:41 34° SE
Terra 2.2 23:08:07 30° SSW 23:10:18 57° W 23:15:01 10° NNW
DELTA 2 R/B (1) 4.1 23:09:37 10° W 23:14:41 37° SSW 23:15:32 35° S
Cosmos 292 Rocket 3.7 23:10:15 10° NNW 23:15:02 85° WSW 23:16:37 42° SSE
Cosmos 1703 3.5 23:16:03 39° SSW 23:17:22 66° W 23:21:16 10° N
Cosmos 1862 Rocket 3.5 23:14:26 10° N 23:18:48 75° E 23:19:53 49° SSE
Cosmos 2298 Rocket 4.4 23:15:36 17° SSW 23:19:43 65° WNW 23:25:02 10° NNE
GEOS 3 Rocket 4.0 23:19:08 28° ESE 23:21:46 60° NE 23:26:53 10° NNW
Cosmos 1980 3.8 23:16:18 10° NNW 23:21:56 66° ENE 23:24:17 35° SE
Cosmos 2219 4.1 23:18:45 10° SW 23:24:16 47° WNW 23:29:51 10° NNE
Cosmos 1271 Rocket 3.5 23:21:55 10° NNW 23:25:32 42° W 23:26:28 35° SW
Cosmos 1933 4.2 23:21:53 10° N 23:25:38 35° ENE 23:26:12 33° E
Cosmos 1346 3.3 23:28:52 66° N 23:28:52 66° N 23:31:33 10° N
Cosmos 1633 Rocket 4.4 23:26:23 18° SW 23:29:06 35° WNW 23:33:09 10° N
ATLAS 2AS CENTAUR R/B 3.3 23:29:35 33° SSE 23:32:26 45° ESE 23:39:58 10° NE
H-2A R/B 3.3 23:31:47 21° SW 23:34:28 34° W 23:39:22 10° NNW
Cosmos 2237 Rocket 2.2 23:29:59 10° NNW 23:35:43 77° ENE 23:37:51 40° SE
COS B Rocket 3.7 23:32:38 10° NNE 23:36:03 44° E 23:36:03 44° E
Cosmos 1937 Rocket 3.6 23:34:58 28° SSW 23:37:44 73° WNW 23:42:58 10° NNE
Cosmos 2082 3.7 23:36:11 41° S 23:38:04 63° ESE 23:43:44 10° NNE
Cosmos 1726 4.4 23:38:17 10° NW 23:40:46 17° W 23:42:11 14° WSW
Nadezhda 1 Rocket 4.4 23:38:55 10° NNW 23:44:50 55° W 23:47:39 30° SSW
ALOS 2 3.4 23:45:44 35° E 23:46:39 40° ENE 23:50:45 10° N
Cosmos 1869 Rocket 4.1 23:47:19 42° ESE 23:47:43 43° E 23:51:58 10° NNE
Cosmos 192 4.3 23:43:14 10° NNW 23:48:11 83° ENE 23:49:22 53° SSE
Cosmos 1269 Rocket 4.4 23:42:58 10° NNW 23:48:12 55° ENE 23:49:56 38° ESE
Cosmos 2360 Rocket 4.4 23:47:09 10° WNW 23:49:37 13° W 23:52:04 10° WSW
Cosmos 389 Rocket 4.0 23:46:59 10° NNE 23:50:06 27° ENE 23:50:06 27° ENE
